TimeAST,TemperatureF,Dew PointF,Humidity,Sea Level PressureIn,VisibilityMPH,Wind Direction,Wind SpeedMPH,Gust SpeedMPH,PrecipitationIn,Events,Conditions,WindDirDegrees,DateUTC
12:53 AM,77.0,72.0,84,30.06,10.0,East,6.9,-,N/A,,Scattered Clouds,100,2013-05-19 04:53:00
1:37 AM,77.0,71.6,83,30.05,10.0,East,6.9,-,N/A,,Mostly Cloudy,100,2013-05-19 05:37:00
1:53 AM,77.0,72.0,84,30.04,10.0,East,5.8,-,N/A,,Mostly Cloudy,90,2013-05-19 05:53:00
2:53 AM,77.0,72.0,84,30.04,10.0,ENE,6.9,-,N/A,,Mostly Cloudy,60,2013-05-19 06:53:00
3:04 AM,77.0,71.6,83,30.04,10.0,ENE,5.8,-,N/A,,Scattered Clouds,70,2013-05-19 07:04:00
3:53 AM,77.0,72.0,84,30.03,10.0,East,6.9,-,N/A,,Partly Cloudy,90,2013-05-19 07:53:00
4:17 AM,77.0,71.6,83,30.03,10.0,East,5.8,-,N/A,,Mostly Cloudy,80,2013-05-19 08:17:00
4:44 AM,77.0,71.6,83,30.03,10.0,East,6.9,-,N/A,,Scattered Clouds,100,2013-05-19 08:44:00
4:53 AM,75.9,72.0,87,30.04,10.0,East,4.6,-,N/A,,Partly Cloudy,80,2013-05-19 08:53:00
5:53 AM,77.0,72.0,84,30.05,10.0,East,5.8,-,N/A,,Partly Cloudy,80,2013-05-19 09:53:00
6:53 AM,78.1,72.0,81,30.07,10.0,East,8.1,-,N/A,,Scattered Clouds,90,2013-05-19 10:53:00
7:53 AM,80.1,71.1,74,30.08,10.0,ESE,9.2,-,N/A,,Clear,110,2013-05-19 11:53:00
8:53 AM,80.1,71.1,74,30.08,10.0,East,9.2,-,N/A,,Clear,100,2013-05-19 12:53:00
9:53 AM,81.0,73.0,77,30.08,10.0,East,6.9,-,N/A,,Scattered Clouds,80,2013-05-19 13:53:00
10:11 AM,80.6,73.4,79,30.08,10.0,ENE,8.1,-,N/A,,Mostly Cloudy,70,2013-05-19 14:11:00
10:53 AM,81.0,73.0,77,30.07,10.0,East,11.5,-,N/A,,Mostly Cloudy,80,2013-05-19 14:53:00
11:22 AM,82.4,75.2,79,30.07,10.0,East,10.4,16.1,N/A,,Scattered Clouds,90,2013-05-19 15:22:00
11:53 AM,82.9,73.9,74,30.06,10.0,East,11.5,-,N/A,,Scattered Clouds,100,2013-05-19 15:53:00
12:53 PM,-9999,-9999,N/A,30.06,10.0,East,13.8,-,N/A,,Partly Cloudy,90,2013-05-19 16:53:00
1:53 PM,-9999,-9999,N/A,30.05,10.0,ESE,13.8,-,N/A,,Clear,120,2013-05-19 17:53:00
2:53 PM,-9999,-9999,N/A,30.03,10.0,ESE,12.7,-,N/A,,Clear,120,2013-05-19 18:53:00
3:53 PM,-9999,-9999,N/A,30.02,10.0,ESE,11.5,-,N/A,,Partly Cloudy,120,2013-05-19 19:53:00
4:53 PM,80.1,73.9,81,30.01,10.0,ESE,10.4,-,N/A,,Clear,110,2013-05-19 20:53:00
5:53 PM,80.1,75.0,85,30.02,10.0,East,10.4,-,N/A,,Scattered Clouds,90,2013-05-19 21:53:00
6:53 PM,79.0,73.9,84,30.03,10.0,East,9.2,-,N/A,,Clear,100,2013-05-19 22:53:00
7:53 PM,79.0,73.0,82,30.04,10.0,East,8.1,17.3,N/A,,Scattered Clouds,100,2013-05-19 23:53:00
8:31 PM,78.8,73.4,83,30.05,10.0,ENE,8.1,-,N/A,,Mostly Cloudy,70,2013-05-20 00:31:00
8:39 PM,78.8,73.4,83,30.06,10.0,ENE,9.2,-,N/A,,Scattered Clouds,70,2013-05-20 00:39:00
8:53 PM,78.1,73.0,84,30.06,10.0,East,9.2,-,N/A,,Partly Cloudy,80,2013-05-20 00:53:00
9:53 PM,78.1,72.0,81,30.08,10.0,East,5.8,-,N/A,,Partly Cloudy,80,2013-05-20 01:53:00
10:53 PM,78.1,72.0,81,30.07,10.0,East,8.1,-,N/A,,Partly Cloudy,90,2013-05-20 02:53:00
11:53 PM,78.1,73.0,84,30.07,10.0,East,9.2,-,N/A,,Scattered Clouds,90,2013-05-20 03:53:00